Time,TemperatureF,DewpointF,PressureIn,WindDirection,WindDirectionDegrees,WindSpeedMPH,WindSpeedGustMPH,Humidity,HourlyPrecipIn,Conditions,Clouds,dailyrainin,SoftwareType,DateUTC
2013-12-22 00:02:00,47.0,38.4,29.26,North,0,0.0,0.0,72,0.00,,,0.00,WUHU216HW,2013-12-22 06:02:00,
2013-12-22 00:07:00,46.8,38.3,29.27,North,0,0.0,0.0,72,0.00,,,0.00,WUHU216HW,2013-12-22 06:07:00,
2013-12-22 00:12:00,46.8,38.3,29.27,North,0,0.0,0.0,72,0.00,,,0.00,WUHU216HW,2013-12-22 06:12:00,
2013-12-22 00:17:00,46.6,38.4,29.27,North,0,0.0,0.0,73,0.00,,,0.00,WUHU216HW,2013-12-22 06:17:00,
2013-12-22 00:22:00,46.6,38.4,29.27,North,0,0.0,0.0,73,0.00,,,0.00,WUHU216HW,2013-12-22 06:22:00,
2013-12-22 00:27:00,46.6,38.4,29.27,North,0,0.0,0.0,73,0.00,,,0.00,WUHU216HW,2013-12-22 06:27:00,
2013-12-22 00:32:00,46.4,38.3,29.27,North,0,0.0,0.0,73,0.00,,,0.00,WUHU216HW,2013-12-22 06:32:00,
2013-12-22 00:37:00,46.4,38.6,29.27,North,0,0.0,0.0,74,0.00,,,0.00,WUHU216HW,2013-12-22 06:37:00,
2013-12-22 00:42:00,46.4,38.6,29.27,North,0,0.0,0.0,74,0.00,,,0.00,WUHU216HW,2013-12-22 06:42:00,
2013-12-22 00:47:00,46.3,38.8,29.27,North,0,0.0,0.0,75,0.00,,,0.00,WUHU216HW,2013-12-22 06:47:00,
2013-12-22 00:53:00,46.3,38.8,29.27,North,0,0.0,0.0,75,0.00,,,0.00,WUHU216HW,2013-12-22 06:53:00,
2013-12-22 00:58:00,46.3,38.8,29.27,North,0,0.0,0.0,75,0.00,,,0.00,WUHU216HW,2013-12-22 06:58:00,
2013-12-22 00:59:00,46.3,38.8,29.27,North,0,0.0,0.0,75,0.00,,,0.00,WUHU216HW,2013-12-22 06:59:00,
2013-12-22 01:04:00,46.3,38.4,29.27,North,0,0.0,0.0,74,0.00,,,0.00,WUHU216HW,2013-12-22 07:04:00,
2013-12-22 01:09:00,46.1,38.6,29.27,North,0,0.0,0.0,75,0.00,,,0.00,WUHU216HW,2013-12-22 07:09:00,
2013-12-22 01:14:00,46.1,38.6,29.27,North,0,0.0,0.0,75,0.00,,,0.00,WUHU216HW,2013-12-22 07:14:00,
2013-12-22 01:19:00,46.1,38.6,29.27,North,0,0.0,0.0,75,0.00,,,0.00,WUHU216HW,2013-12-22 07:19:00,
2013-12-22 01:24:00,45.9,38.4,29.27,North,0,0.0,0.0,75,0.00,,,0.00,WUHU216HW,2013-12-22 07:24:00,
2013-12-22 01:29:00,45.9,38.4,29.27,North,0,0.0,0.0,75,0.00,,,0.00,WUHU216HW,2013-12-22 07:29:00,
2013-12-22 01:35:00,45.7,38.6,29.27,North,0,0.0,0.0,76,0.00,,,0.00,WUHU216HW,2013-12-22 07:35:00,
2013-12-22 01:40:00,45.4,37.9,29.27,North,0,0.0,0.0,75,0.00,,,0.00,WUHU216HW,2013-12-22 07:40:00,
2013-12-22 01:45:00,45.2,38.1,29.28,North,0,0.0,0.0,76,0.00,,,0.00,WUHU216HW,2013-12-22 07:45:00,
2013-12-22 01:50:00,45.0,37.9,29.28,North,0,0.0,0.0,76,0.00,,,0.00,WUHU216HW,2013-12-22 07:50:00,
2013-12-22 01:55:00,45.0,38.3,29.28,North,0,0.0,0.0,77,0.00,,,0.00,WUHU216HW,2013-12-22 07:55:00,
2013-12-22 02:00:00,45.0,37.9,29.28,North,0,0.0,0.0,76,0.00,,,0.00,WUHU216HW,2013-12-22 08:00:00,
2013-12-22 02:05:00,45.0,37.9,29.29,North,0,0.0,0.0,76,0.00,,,0.00,WUHU216HW,2013-12-22 08:05:00,
2013-12-22 02:10:00,45.0,37.9,29.29,North,0,0.0,0.0,76,0.00,,,0.00,WUHU216HW,2013-12-22 08:10:00,
2013-12-22 02:15:00,45.2,38.4,29.29,North,0,0.0,0.0,77,0.00,,,0.00,WUHU216HW,2013-12-22 08:15:00,
2013-12-22 02:20:00,45.4,38.3,29.29,North,0,0.0,0.0,76,0.00,,,0.00,WUHU216HW,2013-12-22 08:20:00,
2013-12-22 02:25:00,45.4,38.3,29.29,North,0,0.0,0.0,76,0.00,,,0.00,WUHU216HW,2013-12-22 08:25:00,
2013-12-22 02:30:00,45.4,38.3,29.29,North,0,0.0,0.0,76,0.00,,,0.00,WUHU216HW,2013-12-22 08:30:00,
2013-12-22 02:35:00,45.4,38.3,29.29,North,0,0.0,0.0,76,0.00,,,0.00,WUHU216HW,2013-12-22 08:35:00,
2013-12-22 02:40:00,45.4,37.9,29.29,North,0,0.0,0.0,75,0.00,,,0.00,WUHU216HW,2013-12-22 08:40:00,
2013-12-22 02:45:00,45.4,37.9,29.30,North,0,0.0,0.0,75,0.00,,,0.00,WUHU216HW,2013-12-22 08:45:00,
2013-12-22 02:50:00,45.2,37.7,29.30,North,0,0.0,0.0,75,0.00,,,0.00,WUHU216HW,2013-12-22 08:50:00,
2013-12-22 02:55:00,45.0,37.9,29.30,North,0,0.0,0.0,76,0.00,,,0.00,WUHU216HW,2013-12-22 08:55:00,
2013-12-22 03:00:00,44.8,37.7,29.30,North,0,0.0,0.0,76,0.00,,,0.00,WUHU216HW,2013-12-22 09:00:00,
2013-12-22 03:06:00,44.6,37.5,29.30,North,0,0.0,0.0,76,0.00,,,0.00,WUHU216HW,2013-12-22 09:06:00,
2013-12-22 03:11:00,44.5,37.4,29.30,North,0,0.0,0.0,76,0.00,,,0.00,WUHU216HW,2013-12-22 09:11:00,
2013-12-22 03:16:00,44.3,37.5,29.30,North,0,0.0,0.0,77,0.00,,,0.00,WUHU216HW,2013-12-22 09:16:00,
2013-12-22 03:21:00,44.1,37.4,29.30,North,0,0.0,0.0,77,0.00,,,0.00,WUHU216HW,2013-12-22 09:21:00,
2013-12-22 03:26:00,43.9,37.2,29.30,North,0,0.0,0.0,77,0.00,,,0.00,WUHU216HW,2013-12-22 09:26:00,
2013-12-22 03:31:00,43.9,37.2,29.31,North,0,0.0,0.0,77,0.00,,,0.00,WUHU216HW,2013-12-22 09:31:00,
2013-12-22 03:36:00,43.9,37.2,29.31,North,0,0.0,0.0,77,0.00,,,0.00,WUHU216HW,2013-12-22 09:36:00,
2013-12-22 03:41:00,43.9,37.2,29.31,North,0,0.0,0.0,77,0.00,,,0.00,WUHU216HW,2013-12-22 09:41:00,
2013-12-22 03:46:00,43.9,37.2,29.31,North,0,0.0,0.0,77,0.00,,,0.00,WUHU216HW,2013-12-22 09:46:00,
2013-12-22 03:51:00,43.9,37.5,29.32,North,0,0.0,0.0,78,0.00,,,0.00,WUHU216HW,2013-12-22 09:51:00,
2013-12-22 03:56:00,43.7,37.4,29.32,North,0,0.0,0.0,78,0.00,,,0.00,WUHU216HW,2013-12-22 09:56:00,
2013-12-22 04:01:00,43.6,37.2,29.32,North,0,0.0,0.0,78,0.00,,,0.00,WUHU216HW,2013-12-22 10:01:00,
2013-12-22 04:06:00,43.6,37.2,29.32,North,0,0.0,0.0,78,0.00,,,0.00,WUHU216HW,2013-12-22 10:06:00,
2013-12-22 04:11:00,43.6,37.2,29.32,North,0,0.0,0.0,78,0.00,,,0.00,WUHU216HW,2013-12-22 10:11:00,
2013-12-22 04:16:00,43.6,37.2,29.32,North,0,0.0,0.0,78,0.00,,,0.00,WUHU216HW,2013-12-22 10:16:00,
2013-12-22 04:21:00,43.7,37.4,29.33,North,0,0.0,0.0,78,0.00,,,0.00,WUHU216HW,2013-12-22 10:21:00,
2013-12-22 04:26:00,43.7,37.4,29.33,North,0,0.0,0.0,78,0.00,,,0.00,WUHU216HW,2013-12-22 10:26:00,
2013-12-22 04:31:00,43.9,37.5,29.33,North,0,0.0,0.0,78,0.00,,,0.00,WUHU216HW,2013-12-22 10:31:00,
2013-12-22 04:37:00,43.9,37.5,29.33,North,0,0.0,0.0,78,0.00,,,0.00,WUHU216HW,2013-12-22 10:37:00,
2013-12-22 04:42:00,44.1,37.7,29.33,North,0,0.0,0.0,78,0.00,,,0.00,WUHU216HW,2013-12-22 10:42:00,
2013-12-22 04:47:00,44.1,37.7,29.33,North,0,0.0,0.0,78,0.00,,,0.00,WUHU216HW,2013-12-22 10:47:00,
2013-12-22 04:52:00,44.3,37.5,29.33,North,0,0.0,0.0,77,0.00,,,0.00,WUHU216HW,2013-12-22 10:52:00,
2013-12-22 04:57:00,44.3,37.5,29.33,North,0,0.0,0.0,77,0.00,,,0.00,WUHU216HW,2013-12-22 10:57:00,
2013-12-22 05:02:00,44.1,37.4,29.33,North,0,0.0,0.0,77,0.00,,,0.00,WUHU216HW,2013-12-22 11:02:00,
2013-12-22 05:07:00,44.1,37.4,29.33,North,0,0.0,0.0,77,0.00,,,0.00,WUHU216HW,2013-12-22 11:07:00,
2013-12-22 05:12:00,43.9,37.5,29.33,North,0,0.0,0.0,78,0.00,,,0.00,WUHU216HW,2013-12-22 11:12:00,
2013-12-22 05:17:00,44.1,37.4,29.34,North,0,0.0,0.0,77,0.00,,,0.00,WUHU216HW,2013-12-22 11:17:00,
2013-12-22 05:22:00,44.1,37.4,29.34,North,0,0.0,0.0,77,0.00,,,0.00,WUHU216HW,2013-12-22 11:22:00,
2013-12-22 05:27:00,44.3,37.5,29.34,North,0,0.0,0.0,77,0.00,,,0.00,WUHU216HW,2013-12-22 11:27:00,
2013-12-22 05:32:00,44.6,37.9,29.34,North,0,0.0,0.0,77,0.00,,,0.00,WUHU216HW,2013-12-22 11:32:00,
2013-12-22 05:37:00,44.8,38.1,29.34,North,0,0.0,0.0,77,0.00,,,0.00,WUHU216HW,2013-12-22 11:37:00,
2013-12-22 05:42:00,45.0,38.3,29.35,North,0,0.0,0.0,77,0.00,,,0.00,WUHU216HW,2013-12-22 11:42:00,
2013-12-22 05:47:00,44.8,38.1,29.35,North,0,0.0,0.0,77,0.00,,,0.00,WUHU216HW,2013-12-22 11:47:00,
2013-12-22 05:52:00,44.6,37.9,29.35,North,0,0.0,0.0,77,0.00,,,0.00,WUHU216HW,2013-12-22 11:52:00,
2013-12-22 05:57:00,44.3,37.8,29.35,North,0,0.0,0.0,78,0.00,,,0.00,WUHU216HW,2013-12-22 11:57:00,
2013-12-22 06:02:00,44.3,37.8,29.35,North,0,0.0,0.0,78,0.00,,,0.00,WUHU216HW,2013-12-22 12:02:00,
2013-12-22 06:07:00,44.3,37.8,29.35,North,0,0.0,0.0,78,0.00,,,0.00,WUHU216HW,2013-12-22 12:07:00,
2013-12-22 06:12:00,44.1,38.0,29.35,North,0,0.0,0.0,79,0.00,,,0.00,WUHU216HW,2013-12-22 12:12:00,
2013-12-22 06:17:00,43.9,37.8,29.36,North,0,0.0,0.0,79,0.00,,,0.00,WUHU216HW,2013-12-22 12:17:00,
2013-12-22 06:23:00,43.7,37.6,29.36,North,0,0.0,0.0,79,0.00,,,0.00,WUHU216HW,2013-12-22 12:23:00,
2013-12-22 06:28:00,43.6,37.4,29.37,North,0,0.0,0.0,79,0.00,,,0.00,WUHU216HW,2013-12-22 12:28:00,
2013-12-22 06:33:00,43.4,37.3,29.37,North,0,0.0,0.0,79,0.00,,,0.00,WUHU216HW,2013-12-22 12:33:00,
2013-12-22 06:38:00,43.0,36.9,29.37,North,0,0.0,0.0,79,0.00,,,0.00,WUHU216HW,2013-12-22 12:38:00,
2013-12-22 06:43:00,43.0,37.3,29.37,North,0,0.0,0.0,80,0.00,,,0.00,WUHU216HW,2013-12-22 12:43:00,
2013-12-22 06:48:00,42.8,37.1,29.38,North,0,0.0,0.0,80,0.00,,,0.00,WUHU216HW,2013-12-22 12:48:00,
2013-12-22 06:53:00,42.8,37.1,29.38,North,0,0.0,0.0,80,0.00,,,0.00,WUHU216HW,2013-12-22 12:53:00,
2013-12-22 06:58:00,42.8,37.1,29.38,North,0,0.0,0.0,80,0.00,,,0.00,WUHU216HW,2013-12-22 12:58:00,
2013-12-22 07:03:00,42.8,37.1,29.38,North,0,0.0,0.0,80,0.00,,,0.00,WUHU216HW,2013-12-22 13:03:00,
2013-12-22 07:08:00,42.8,37.1,29.39,North,0,0.0,0.0,80,0.00,,,0.00,WUHU216HW,2013-12-22 13:08:00,
2013-12-22 07:13:00,42.8,37.1,29.39,North,0,0.0,0.0,80,0.00,,,0.00,WUHU216HW,2013-12-22 13:13:00,
2013-12-22 07:18:00,42.8,37.1,29.39,North,0,0.0,0.0,80,0.00,,,0.00,WUHU216HW,2013-12-22 13:18:00,
2013-12-22 07:23:00,42.8,37.1,29.39,North,0,0.0,0.0,80,0.00,,,0.00,WUHU216HW,2013-12-22 13:23:00,
2013-12-22 07:28:00,42.8,37.1,29.40,North,0,0.0,0.0,80,0.00,,,0.00,WUHU216HW,2013-12-22 13:28:00,
2013-12-22 07:33:00,43.0,37.3,29.40,North,0,0.0,0.0,80,0.00,,,0.00,WUHU216HW,2013-12-22 13:33:00,
2013-12-22 07:38:00,43.0,37.3,29.41,North,0,0.0,0.0,80,0.00,,,0.00,WUHU216HW,2013-12-22 13:38:00,
2013-12-22 07:43:00,42.8,37.1,29.41,North,0,0.0,0.0,80,0.00,,,0.00,WUHU216HW,2013-12-22 13:43:00,
2013-12-22 07:48:00,42.8,37.4,29.42,North,0,0.0,0.0,81,0.00,,,0.00,WUHU216HW,2013-12-22 13:48:00,
2013-12-22 07:54:00,43.0,37.3,29.42,North,0,0.0,0.0,80,0.00,,,0.00,WUHU216HW,2013-12-22 13:54:00,
2013-12-22 07:59:00,43.2,37.4,29.42,North,0,0.0,0.0,80,0.00,,,0.00,WUHU216HW,2013-12-22 13:59:00,
2013-12-22 08:04:00,43.6,37.8,29.43,North,0,0.0,0.0,80,0.00,,,0.00,WUHU216HW,2013-12-22 14:04:00,
2013-12-22 08:09:00,43.7,37.6,29.43,North,0,0.0,0.0,79,0.00,,,0.00,WUHU216HW,2013-12-22 14:09:00,
2013-12-22 08:14:00,43.9,37.8,29.43,North,0,0.0,0.0,79,0.00,,,0.00,WUHU216HW,2013-12-22 14:14:00,
2013-12-22 08:19:00,43.7,37.6,29.44,North,0,0.0,0.0,79,0.00,,,0.00,WUHU216HW,2013-12-22 14:19:00,
2013-12-22 08:24:00,43.7,38.0,29.44,North,0,0.0,0.0,80,0.00,,,0.00,WUHU216HW,2013-12-22 14:24:00,
2013-12-22 08:29:00,43.9,38.2,29.44,North,0,0.0,0.0,80,0.00,,,0.00,WUHU216HW,2013-12-22 14:29:00,
2013-12-22 08:34:00,43.9,38.2,29.45,North,0,0.0,0.0,80,0.00,,,0.00,WUHU216HW,2013-12-22 14:34:00,
2013-12-22 08:39:00,44.1,38.3,29.45,North,0,0.0,0.0,80,0.00,,,0.00,WUHU216HW,2013-12-22 14:39:00,
2013-12-22 08:44:00,44.6,38.5,29.45,North,0,0.0,0.0,79,0.00,,,0.00,WUHU216HW,2013-12-22 14:44:00,
2013-12-22 08:49:00,45.2,39.1,29.45,North,0,0.0,0.0,79,0.00,,,0.00,WUHU216HW,2013-12-22 14:49:00,
2013-12-22 08:54:00,45.4,39.6,29.46,North,0,0.0,0.0,80,0.00,,,0.00,WUHU216HW,2013-12-22 14:54:00,
2013-12-22 08:59:00,45.7,40.0,29.46,North,0,0.0,0.0,80,0.00,,,0.00,WUHU216HW,2013-12-22 14:59:00,
2013-12-22 09:04:00,46.8,40.7,29.46,North,0,0.0,0.0,79,0.00,,,0.00,WUHU216HW,2013-12-22 15:04:00,
2013-12-22 09:09:00,48.4,41.8,29.47,North,0,0.0,0.0,78,0.00,,,0.00,WUHU216HW,2013-12-22 15:09:00,
2013-12-22 09:14:00,50.0,41.7,29.47,North,0,0.0,0.0,73,0.00,,,0.00,WUHU216HW,2013-12-22 15:14:00,
2013-12-22 09:19:00,51.1,41.0,29.47,North,0,0.0,0.0,68,0.00,,,0.00,WUHU216HW,2013-12-22 15:19:00,
2013-12-22 09:24:00,52.2,40.3,29.48,North,0,0.0,0.0,64,0.00,,,0.00,WUHU216HW,2013-12-22 15:24:00,
2013-12-22 09:29:00,52.9,40.2,29.48,North,0,0.0,0.0,62,0.00,,,0.00,WUHU216HW,2013-12-22 15:29:00,
2013-12-22 09:35:00,53.6,41.0,29.49,North,0,0.0,0.0,62,0.00,,,0.00,WUHU216HW,2013-12-22 15:35:00,
2013-12-22 09:40:00,54.0,40.5,29.49,North,0,0.0,0.0,60,0.00,,,0.00,WUHU216HW,2013-12-22 15:40:00,
2013-12-22 09:45:00,54.4,40.3,29.49,North,0,0.0,0.0,59,0.00,,,0.00,WUHU216HW,2013-12-22 15:45:00,
2013-12-22 09:50:00,54.7,40.1,29.50,North,0,0.0,0.0,58,0.00,,,0.00,WUHU216HW,2013-12-22 15:50:00,
2013-12-22 09:55:00,55.1,40.1,29.50,North,0,0.0,0.0,57,0.00,,,0.00,WUHU216HW,2013-12-22 15:55:00,
2013-12-22 10:00:00,55.3,40.2,29.50,North,0,0.0,0.0,57,0.00,,,0.00,WUHU216HW,2013-12-22 16:00:00,
2013-12-22 10:05:00,55.4,39.9,29.50,North,0,0.0,0.0,56,0.00,,,0.00,WUHU216HW,2013-12-22 16:05:00,
2013-12-22 10:10:00,55.6,40.1,29.51,North,0,0.0,0.0,56,0.00,,,0.00,WUHU216HW,2013-12-22 16:10:00,
2013-12-22 10:15:00,55.8,40.7,29.51,North,0,0.0,0.0,57,0.00,,,0.00,WUHU216HW,2013-12-22 16:15:00,
2013-12-22 10:20:00,55.8,40.7,29.51,North,0,0.0,0.0,57,0.00,,,0.00,WUHU216HW,2013-12-22 16:20:00,
2013-12-22 10:25:00,56.2,41.0,29.52,North,0,0.0,0.0,57,0.00,,,0.00,WUHU216HW,2013-12-22 16:25:00,
2013-12-22 10:30:00,56.5,41.0,29.52,North,0,0.0,0.0,56,0.00,,,0.00,WUHU216HW,2013-12-22 16:30:00,
2013-12-22 10:35:00,56.5,41.0,29.52,North,0,0.0,0.0,56,0.00,,,0.00,WUHU216HW,2013-12-22 16:35:00,
2013-12-22 10:40:00,56.5,41.0,29.52,North,0,0.0,0.0,56,0.00,,,0.00,WUHU216HW,2013-12-22 16:40:00,
2013-12-22 10:45:00,56.7,41.1,29.52,North,0,0.0,0.0,56,0.00,,,0.00,WUHU216HW,2013-12-22 16:45:00,
2013-12-22 10:50:00,56.7,40.7,29.52,North,0,0.0,0.0,55,0.00,,,0.00,WUHU216HW,2013-12-22 16:50:00,
2013-12-22 10:55:00,56.9,40.9,29.52,North,0,0.0,0.0,55,0.00,,,0.00,WUHU216HW,2013-12-22 16:55:00,
2013-12-22 11:00:00,56.9,41.8,29.52,North,0,0.0,0.0,57,0.00,,,0.00,WUHU216HW,2013-12-22 17:00:00,
2013-12-22 11:05:00,57.1,41.9,29.52,North,0,0.0,0.0,57,0.00,,,0.00,WUHU216HW,2013-12-22 17:05:00,
2013-12-22 11:11:00,57.1,42.5,29.52,North,0,0.0,0.0,58,0.00,,,0.00,WUHU216HW,2013-12-22 17:11:00,
2013-12-22 11:16:00,57.2,42.7,29.52,North,0,0.0,0.0,58,0.00,,,0.00,WUHU216HW,2013-12-22 17:16:00,
2013-12-22 11:21:00,57.1,42.5,29.52,North,0,0.0,0.0,58,0.00,,,0.00,WUHU216HW,2013-12-22 17:21:00,
2013-12-22 11:26:00,57.4,42.3,29.53,North,0,0.0,0.0,57,0.00,,,0.00,WUHU216HW,2013-12-22 17:26:00,
2013-12-22 11:31:00,57.6,41.0,29.52,North,0,0.0,0.0,54,0.00,,,0.00,WUHU216HW,2013-12-22 17:31:00,
2013-12-22 11:36:00,57.8,40.8,29.53,North,0,0.0,0.0,53,0.00,,,0.00,WUHU216HW,2013-12-22 17:36:00,
2013-12-22 11:41:00,58.1,41.6,29.53,North,0,0.0,0.0,54,0.00,,,0.00,WUHU216HW,2013-12-22 17:41:00,
2013-12-22 11:46:00,58.0,42.3,29.53,North,0,0.0,0.0,56,0.00,,,0.00,WUHU216HW,2013-12-22 17:46:00,
2013-12-22 11:51:00,57.8,42.2,29.53,North,0,0.0,0.0,56,0.00,,,0.00,WUHU216HW,2013-12-22 17:51:00,
2013-12-22 11:56:00,57.8,41.7,29.53,North,0,0.0,0.0,55,0.00,,,0.00,WUHU216HW,2013-12-22 17:56:00,
2013-12-22 12:01:00,57.6,41.6,29.53,North,0,0.0,0.0,55,0.00,,,0.00,WUHU216HW,2013-12-22 18:01:00,
2013-12-22 12:06:00,57.6,42.0,29.53,North,0,0.0,0.0,56,0.00,,,0.00,WUHU216HW,2013-12-22 18:06:00,
2013-12-22 12:11:00,57.6,41.6,29.53,North,0,0.0,0.0,55,0.00,,,0.00,WUHU216HW,2013-12-22 18:11:00,
2013-12-22 12:16:00,57.2,41.7,29.53,North,0,0.0,0.0,56,0.00,,,0.00,WUHU216HW,2013-12-22 18:16:00,
2013-12-22 12:21:00,57.1,41.0,29.53,North,0,0.0,0.0,55,0.00,,,0.00,WUHU216HW,2013-12-22 18:21:00,
2013-12-22 12:26:00,56.5,42.0,29.53,North,0,0.0,0.0,58,0.00,,,0.00,WUHU216HW,2013-12-22 18:26:00,
2013-12-22 12:31:00,56.5,41.4,29.53,North,0,0.0,0.0,57,0.00,,,0.00,WUHU216HW,2013-12-22 18:31:00,
2013-12-22 12:36:00,56.7,42.1,29.52,North,0,0.0,0.0,58,0.00,,,0.00,WUHU216HW,2013-12-22 18:36:00,
2013-12-22 12:42:00,57.1,41.9,29.52,North,0,0.0,0.0,57,0.00,,,0.00,WUHU216HW,2013-12-22 18:42:00,
2013-12-22 12:47:00,57.1,41.9,29.52,North,0,0.0,0.0,57,0.00,,,0.00,WUHU216HW,2013-12-22 18:47:00,
2013-12-22 12:52:00,56.9,41.3,29.52,North,0,0.0,0.0,56,0.00,,,0.00,WUHU216HW,2013-12-22 18:52:00,
2013-12-22 12:57:00,56.5,42.0,29.52,North,0,0.0,0.0,58,0.00,,,0.00,WUHU216HW,2013-12-22 18:57:00,
2013-12-22 13:02:00,56.7,42.1,29.52,North,0,0.0,0.0,58,0.00,,,0.00,WUHU216HW,2013-12-22 19:02:00,
2013-12-22 13:07:00,56.7,43.0,29.51,North,0,0.0,0.0,60,0.00,,,0.00,WUHU216HW,2013-12-22 19:07:00,
2013-12-22 13:12:00,56.9,41.8,29.51,North,0,0.0,0.0,57,0.00,,,0.00,WUHU216HW,2013-12-22 19:12:00,
2013-12-22 13:17:00,56.9,42.3,29.51,North,0,0.0,0.0,58,0.00,,,0.00,WUHU216HW,2013-12-22 19:17:00,
2013-12-22 13:22:00,56.3,42.2,29.51,North,0,0.0,0.0,59,0.00,,,0.00,WUHU216HW,2013-12-22 19:22:00,
2013-12-22 13:27:00,56.2,41.6,29.51,North,0,0.0,0.0,58,0.00,,,0.00,WUHU216HW,2013-12-22 19:27:00,
2013-12-22 13:32:00,56.2,42.0,29.51,North,0,0.0,0.0,59,0.00,,,0.00,WUHU216HW,2013-12-22 19:32:00,
2013-12-22 13:37:00,56.2,42.5,29.51,North,0,0.0,0.0,60,0.00,,,0.00,WUHU216HW,2013-12-22 19:37:00,
2013-12-22 13:42:00,56.3,42.2,29.51,North,0,0.0,0.0,59,0.00,,,0.00,WUHU216HW,2013-12-22 19:42:00,
2013-12-22 13:47:00,55.8,41.7,29.51,North,0,0.0,0.0,59,0.00,,,0.00,WUHU216HW,2013-12-22 19:47:00,
2013-12-22 13:52:00,55.6,41.5,29.51,North,0,0.0,0.0,59,0.00,,,0.00,WUHU216HW,2013-12-22 19:52:00,
2013-12-22 13:57:00,55.6,41.5,29.51,North,0,0.0,0.0,59,0.00,,,0.00,WUHU216HW,2013-12-22 19:57:00,
2013-12-22 14:02:00,55.6,41.5,29.51,North,0,0.0,0.0,59,0.00,,,0.00,WUHU216HW,2013-12-22 20:02:00,
2013-12-22 14:07:00,55.8,42.1,29.51,North,0,0.0,0.0,60,0.00,,,0.00,WUHU216HW,2013-12-22 20:07:00,
2013-12-22 14:13:00,56.2,42.0,29.51,North,0,0.0,0.0,59,0.00,,,0.00,WUHU216HW,2013-12-22 20:13:00,
2013-12-22 14:18:00,56.0,41.9,29.51,North,0,0.0,0.0,59,0.00,,,0.00,WUHU216HW,2013-12-22 20:18:00,
2013-12-22 14:23:00,56.2,42.0,29.51,North,0,0.0,0.0,59,0.00,,,0.00,WUHU216HW,2013-12-22 20:23:00,
2013-12-22 14:28:00,56.3,42.2,29.51,North,0,0.0,0.0,59,0.00,,,0.00,WUHU216HW,2013-12-22 20:28:00,
2013-12-22 14:33:00,56.5,42.0,29.51,North,0,0.0,0.0,58,0.00,,,0.00,WUHU216HW,2013-12-22 20:33:00,
2013-12-22 14:38:00,56.3,41.8,29.51,North,0,0.0,0.0,58,0.00,,,0.00,WUHU216HW,2013-12-22 20:38:00,
2013-12-22 14:43:00,56.3,41.2,29.52,North,0,0.0,0.0,57,0.00,,,0.00,WUHU216HW,2013-12-22 20:43:00,
2013-12-22 14:48:00,56.2,41.0,29.52,North,0,0.0,0.0,57,0.00,,,0.00,WUHU216HW,2013-12-22 20:48:00,
2013-12-22 14:53:00,56.2,40.6,29.52,North,0,0.0,0.0,56,0.00,,,0.00,WUHU216HW,2013-12-22 20:53:00,
2013-12-22 14:58:00,56.3,40.8,29.52,North,0,0.0,0.0,56,0.00,,,0.00,WUHU216HW,2013-12-22 20:58:00,
2013-12-22 15:03:00,56.5,41.4,29.52,North,0,0.0,0.0,57,0.00,,,0.00,WUHU216HW,2013-12-22 21:03:00,
2013-12-22 15:08:00,56.5,41.0,29.52,North,0,0.0,0.0,56,0.00,,,0.00,WUHU216HW,2013-12-22 21:08:00,
2013-12-22 15:13:00,56.3,40.3,29.52,North,0,0.0,0.0,55,0.00,,,0.00,WUHU216HW,2013-12-22 21:13:00,
2013-12-22 15:18:00,56.2,40.6,29.53,North,0,0.0,0.0,56,0.00,,,0.00,WUHU216HW,2013-12-22 21:18:00,
2013-12-22 15:23:00,56.2,40.6,29.53,North,0,0.0,0.0,56,0.00,,,0.00,WUHU216HW,2013-12-22 21:23:00,
2013-12-22 15:28:00,56.2,41.0,29.53,North,0,0.0,0.0,57,0.00,,,0.00,WUHU216HW,2013-12-22 21:28:00,
2013-12-22 15:33:00,55.8,40.2,29.53,North,0,0.0,0.0,56,0.00,,,0.00,WUHU216HW,2013-12-22 21:33:00,
2013-12-22 15:38:00,55.8,40.7,29.53,North,0,0.0,0.0,57,0.00,,,0.00,WUHU216HW,2013-12-22 21:38:00,
2013-12-22 15:43:00,55.4,39.9,29.54,North,0,0.0,0.0,56,0.00,,,0.00,WUHU216HW,2013-12-22 21:43:00,
2013-12-22 15:48:00,55.3,40.2,29.54,North,0,0.0,0.0,57,0.00,,,0.00,WUHU216HW,2013-12-22 21:48:00,
2013-12-22 15:53:00,55.3,40.2,29.54,North,0,0.0,0.0,57,0.00,,,0.00,WUHU216HW,2013-12-22 21:53:00,
2013-12-22 15:58:00,55.1,39.6,29.54,North,0,0.0,0.0,56,0.00,,,0.00,WUHU216HW,2013-12-22 21:58:00,
2013-12-22 16:03:00,55.1,39.1,29.55,North,0,0.0,0.0,55,0.00,,,0.00,WUHU216HW,2013-12-22 22:03:00,
2013-12-22 16:08:00,54.9,39.0,29.55,North,0,0.0,0.0,55,0.00,,,0.00,WUHU216HW,2013-12-22 22:08:00,
2013-12-22 16:13:00,54.7,37.8,29.55,North,0,0.0,0.0,53,0.00,,,0.00,WUHU216HW,2013-12-22 22:13:00,
2013-12-22 16:18:00,54.7,38.4,29.55,North,0,0.0,0.0,54,0.00,,,0.00,WUHU216HW,2013-12-22 22:18:00,
2013-12-22 16:23:00,54.5,38.2,29.55,North,0,0.0,0.0,54,0.00,,,0.00,WUHU216HW,2013-12-22 22:23:00,
2013-12-22 16:28:00,54.4,38.0,29.55,North,0,0.0,0.0,54,0.00,,,0.00,WUHU216HW,2013-12-22 22:28:00,
2013-12-22 16:34:00,54.2,37.4,29.56,North,0,0.0,0.0,53,0.00,,,0.00,WUHU216HW,2013-12-22 22:34:00,
2013-12-22 16:39:00,54.2,37.4,29.56,North,0,0.0,0.0,53,0.00,,,0.00,WUHU216HW,2013-12-22 22:39:00,
2013-12-22 16:44:00,54.0,37.6,29.56,North,0,0.0,0.0,54,0.00,,,0.00,WUHU216HW,2013-12-22 22:44:00,
2013-12-22 16:49:00,53.6,37.4,29.57,North,0,0.0,0.0,54,0.00,,,0.00,WUHU216HW,2013-12-22 22:49:00,
2013-12-22 16:54:00,53.6,37.8,29.57,North,0,0.0,0.0,55,0.00,,,0.00,WUHU216HW,2013-12-22 22:54:00,
2013-12-22 16:59:00,53.3,35.7,29.58,North,0,0.0,0.0,51,0.00,,,0.00,WUHU216HW,2013-12-22 22:59:00,
2013-12-22 17:04:00,53.1,35.9,29.58,North,0,0.0,0.0,52,0.00,,,0.00,WUHU216HW,2013-12-22 23:04:00,
2013-12-22 17:09:00,52.9,35.7,29.58,North,0,0.0,0.0,52,0.00,,,0.00,WUHU216HW,2013-12-22 23:09:00,
2013-12-22 17:14:00,52.4,34.7,29.58,North,0,0.0,0.0,51,0.00,,,0.00,WUHU216HW,2013-12-22 23:14:00,
2013-12-22 17:19:00,52.2,34.7,29.58,North,0,0.0,0.0,51,0.00,,,0.00,WUHU216HW,2013-12-22 23:19:00,
2013-12-22 17:24:00,51.8,34.7,29.59,North,0,0.0,0.0,52,0.00,,,0.00,WUHU216HW,2013-12-22 23:24:00,
2013-12-22 17:29:00,51.7,35.5,29.59,North,0,0.0,0.0,54,0.00,,,0.00,WUHU216HW,2013-12-22 23:29:00,
2013-12-22 17:34:00,51.5,35.3,29.59,North,0,0.0,0.0,54,0.00,,,0.00,WUHU216HW,2013-12-22 23:34:00,
2013-12-22 17:39:00,51.1,35.0,29.60,North,0,0.0,0.0,54,0.00,,,0.00,WUHU216HW,2013-12-22 23:39:00,
2013-12-22 17:44:00,50.9,34.4,29.60,North,0,0.0,0.0,53,0.00,,,0.00,WUHU216HW,2013-12-22 23:44:00,
2013-12-22 17:49:00,50.8,34.2,29.60,North,0,0.0,0.0,53,0.00,,,0.00,WUHU216HW,2013-12-22 23:49:00,
2013-12-22 17:54:00,50.6,34.5,29.60,North,0,0.0,0.0,54,0.00,,,0.00,WUHU216HW,2013-12-22 23:54:00,
2013-12-22 17:59:00,50.2,34.7,29.60,North,0,0.0,0.0,55,0.00,,,0.00,WUHU216HW,2013-12-22 23:59:00,
2013-12-22 18:04:00,50.0,34.5,29.60,North,0,0.0,0.0,55,0.00,,,0.00,WUHU216HW,2013-12-23 00:04:00,
2013-12-22 18:10:00,49.9,34.3,29.61,North,0,0.0,0.0,55,0.00,,,0.00,WUHU216HW,2013-12-23 00:10:00,
2013-12-22 18:15:00,49.5,33.9,29.61,North,0,0.0,0.0,55,0.00,,,0.00,WUHU216HW,2013-12-23 00:15:00,
2013-12-22 18:20:00,49.3,33.8,29.61,North,0,0.0,0.0,55,0.00,,,0.00,WUHU216HW,2013-12-23 00:20:00,
2013-12-22 18:25:00,49.1,34.1,29.61,North,0,0.0,0.0,56,0.00,,,0.00,WUHU216HW,2013-12-23 00:25:00,
2013-12-22 18:30:00,49.0,33.5,29.62,North,0,0.0,0.0,55,0.00,,,0.00,WUHU216HW,2013-12-23 00:30:00,
2013-12-22 18:35:00,48.8,33.3,29.62,North,0,0.0,0.0,55,0.00,,,0.00,WUHU216HW,2013-12-23 00:35:00,
2013-12-22 18:40:00,48.6,32.7,29.62,North,0,0.0,0.0,54,0.00,,,0.00,WUHU216HW,2013-12-23 00:40:00,
2013-12-22 18:45:00,48.6,33.1,29.63,North,0,0.0,0.0,55,0.00,,,0.00,WUHU216HW,2013-12-23 00:45:00,
2013-12-22 18:50:00,48.4,33.4,29.63,North,0,0.0,0.0,56,0.00,,,0.00,WUHU216HW,2013-12-23 00:50:00,
2013-12-22 18:55:00,48.1,33.0,29.63,North,0,0.0,0.0,56,0.00,,,0.00,WUHU216HW,2013-12-23 00:55:00,
2013-12-22 19:00:00,47.9,33.4,29.63,North,0,0.0,0.0,57,0.00,,,0.00,WUHU216HW,2013-12-23 01:00:00,
2013-12-22 19:05:00,47.9,33.4,29.63,North,0,0.0,0.0,57,0.00,,,0.00,WUHU216HW,2013-12-23 01:05:00,
2013-12-22 19:10:00,47.5,33.5,29.64,North,0,0.0,0.0,58,0.00,,,0.00,WUHU216HW,2013-12-23 01:10:00,
2013-12-22 19:15:00,47.3,33.3,29.64,North,0,0.0,0.0,58,0.00,,,0.00,WUHU216HW,2013-12-23 01:15:00,
2013-12-22 19:20:00,47.2,33.6,29.64,North,0,0.0,0.0,59,0.00,,,0.00,WUHU216HW,2013-12-23 01:20:00,
2013-12-22 19:25:00,47.0,33.4,29.64,North,0,0.0,0.0,59,0.00,,,0.00,WUHU216HW,2013-12-23 01:25:00,
2013-12-22 19:30:00,46.8,32.8,29.65,North,0,0.0,0.0,58,0.00,,,0.00,WUHU216HW,2013-12-23 01:30:00,
2013-12-22 19:35:00,46.8,32.8,29.65,North,0,0.0,0.0,58,0.00,,,0.00,WUHU216HW,2013-12-23 01:35:00,
2013-12-22 19:40:00,46.6,33.0,29.65,North,0,0.0,0.0,59,0.00,,,0.00,WUHU216HW,2013-12-23 01:40:00,
2013-12-22 19:46:00,46.4,32.9,29.65,North,0,0.0,0.0,59,0.00,,,0.00,WUHU216HW,2013-12-23 01:46:00,
2013-12-22 19:51:00,46.4,32.4,29.65,North,0,0.0,0.0,58,0.00,,,0.00,WUHU216HW,2013-12-23 01:51:00,
2013-12-22 19:56:00,46.4,32.4,29.66,North,0,0.0,0.0,58,0.00,,,0.00,WUHU216HW,2013-12-23 01:56:00,
2013-12-22 20:01:00,46.3,32.7,29.66,North,0,0.0,0.0,59,0.00,,,0.00,WUHU216HW,2013-12-23 02:01:00,
2013-12-22 20:06:00,45.9,32.4,29.66,North,0,0.0,0.0,59,0.00,,,0.00,WUHU216HW,2013-12-23 02:06:00,
2013-12-22 20:11:00,45.7,32.2,29.67,North,0,0.0,0.0,59,0.00,,,0.00,WUHU216HW,2013-12-23 02:11:00,
2013-12-22 20:16:00,45.7,32.7,29.66,North,0,0.0,0.0,60,0.00,,,0.00,WUHU216HW,2013-12-23 02:16:00,
2013-12-22 20:21:00,45.5,32.5,29.67,North,0,0.0,0.0,60,0.00,,,0.00,WUHU216HW,2013-12-23 02:21:00,
2013-12-22 20:26:00,45.4,32.7,29.67,North,0,0.0,0.0,61,0.00,,,0.00,WUHU216HW,2013-12-23 02:26:00,
2013-12-22 20:31:00,45.0,32.4,29.67,North,0,0.0,0.0,61,0.00,,,0.00,WUHU216HW,2013-12-23 02:31:00,
2013-12-22 20:36:00,45.0,32.4,29.67,North,0,0.0,0.0,61,0.00,,,0.00,WUHU216HW,2013-12-23 02:36:00,
2013-12-22 20:41:00,44.6,32.0,29.67,North,0,0.0,0.0,61,0.00,,,0.00,WUHU216HW,2013-12-23 02:41:00,
2013-12-22 20:46:00,44.3,32.0,29.67,North,0,0.0,0.0,62,0.00,,,0.00,WUHU216HW,2013-12-23 02:46:00,
2013-12-22 20:51:00,44.1,32.0,29.68,North,0,0.0,0.0,62,0.00,,,0.00,WUHU216HW,2013-12-23 02:51:00,
2013-12-22 20:56:00,43.7,32.0,29.68,North,0,0.0,0.0,63,0.00,,,0.00,WUHU216HW,2013-12-23 02:56:00,
2013-12-22 21:01:00,43.6,31.8,29.68,North,0,0.0,0.0,63,0.00,,,0.00,WUHU216HW,2013-12-23 03:01:00,
2013-12-22 21:07:00,43.6,31.8,29.69,North,0,0.0,0.0,63,0.00,,,0.00,WUHU216HW,2013-12-23 03:07:00,
2013-12-22 21:12:00,43.4,31.6,29.69,North,0,0.0,0.0,63,0.00,,,0.00,WUHU216HW,2013-12-23 03:12:00,
2013-12-22 21:17:00,43.4,31.6,29.69,North,0,0.0,0.0,63,0.00,,,0.00,WUHU216HW,2013-12-23 03:17:00,
2013-12-22 21:22:00,43.4,31.6,29.70,North,0,0.0,0.0,63,0.00,,,0.00,WUHU216HW,2013-12-23 03:22:00,
2013-12-22 21:27:00,43.4,31.6,29.70,North,0,0.0,0.0,63,0.00,,,0.00,WUHU216HW,2013-12-23 03:27:00,
2013-12-22 21:32:00,43.4,31.6,29.70,North,0,0.0,0.0,63,0.00,,,0.00,WUHU216HW,2013-12-23 03:32:00,
2013-12-22 21:37:00,43.4,31.2,29.71,North,0,0.0,0.0,62,0.00,,,0.00,WUHU216HW,2013-12-23 03:37:00,
2013-12-22 21:42:00,43.4,31.2,29.71,North,0,0.0,0.0,62,0.00,,,0.00,WUHU216HW,2013-12-23 03:42:00,
2013-12-22 21:47:00,43.4,31.2,29.71,North,0,0.0,0.0,62,0.00,,,0.00,WUHU216HW,2013-12-23 03:47:00,
2013-12-22 21:52:00,43.2,31.1,29.71,North,0,0.0,0.0,62,0.00,,,0.00,WUHU216HW,2013-12-23 03:52:00,
2013-12-22 21:57:00,43.0,31.2,29.71,North,0,0.0,0.0,63,0.00,,,0.00,WUHU216HW,2013-12-23 03:57:00,
2013-12-22 22:02:00,43.0,31.2,29.72,North,0,0.0,0.0,63,0.00,,,0.00,WUHU216HW,2013-12-23 04:02:00,
2013-12-22 22:07:00,42.8,31.5,29.72,North,0,0.0,0.0,64,0.00,,,0.00,WUHU216HW,2013-12-23 04:07:00,
2013-12-22 22:12:00,42.8,31.5,29.72,North,0,0.0,0.0,64,0.00,,,0.00,WUHU216HW,2013-12-23 04:12:00,
2013-12-22 22:17:00,42.7,31.3,29.72,North,0,0.0,0.0,64,0.00,,,0.00,WUHU216HW,2013-12-23 04:17:00,
2013-12-22 22:22:00,42.5,31.2,29.73,North,0,0.0,0.0,64,0.00,,,0.00,WUHU216HW,2013-12-23 04:22:00,
2013-12-22 22:27:00,42.5,31.5,29.73,North,0,0.0,0.0,65,0.00,,,0.00,WUHU216HW,2013-12-23 04:27:00,
2013-12-22 22:32:00,42.3,31.3,29.73,North,0,0.0,0.0,65,0.00,,,0.00,WUHU216HW,2013-12-23 04:32:00,
2013-12-22 22:37:00,42.1,31.6,29.73,North,0,0.0,0.0,66,0.00,,,0.00,WUHU216HW,2013-12-23 04:37:00,
2013-12-22 22:43:00,42.1,30.8,29.73,North,0,0.0,0.0,64,0.00,,,0.00,WUHU216HW,2013-12-23 04:43:00,
2013-12-22 22:48:00,42.1,31.1,29.73,North,0,0.0,0.0,65,0.00,,,0.00,WUHU216HW,2013-12-23 04:48:00,
2013-12-22 22:53:00,41.9,31.4,29.74,North,0,0.0,0.0,66,0.00,,,0.00,WUHU216HW,2013-12-23 04:53:00,
2013-12-22 22:58:00,41.8,31.2,29.74,North,0,0.0,0.0,66,0.00,,,0.00,WUHU216HW,2013-12-23 04:58:00,
2013-12-22 23:01:00,41.6,31.1,29.74,North,0,0.0,0.0,66,0.00,,,0.00,WUHU216HW,2013-12-23 05:01:00,
2013-12-22 23:03:00,41.4,30.9,29.74,North,0,0.0,0.0,66,0.00,,,0.00,WUHU216HW,2013-12-23 05:03:00,
2013-12-22 23:08:00,41.4,30.9,29.74,North,0,0.0,0.0,66,0.00,,,0.00,WUHU216HW,2013-12-23 05:08:00,
2013-12-22 23:13:00,41.2,30.7,29.75,North,0,0.0,0.0,66,0.00,,,0.00,WUHU216HW,2013-12-23 05:13:00,
2013-12-22 23:18:00,41.2,30.7,29.75,North,0,0.0,0.0,66,0.00,,,0.00,WUHU216HW,2013-12-23 05:18:00,
2013-12-22 23:23:00,41.0,30.5,29.75,North,0,0.0,0.0,66,0.00,,,0.00,WUHU216HW,2013-12-23 05:23:00,
2013-12-22 23:28:00,40.9,30.3,29.74,North,0,0.0,0.0,66,0.00,,,0.00,WUHU216HW,2013-12-23 05:28:00,
2013-12-22 23:33:00,40.9,30.3,29.75,North,0,0.0,0.0,66,0.00,,,0.00,WUHU216HW,2013-12-23 05:33:00,
2013-12-22 23:38:00,40.9,30.3,29.75,North,0,0.0,0.0,66,0.00,,,0.00,WUHU216HW,2013-12-23 05:38:00,
2013-12-22 23:43:00,40.7,30.2,29.75,North,0,0.0,0.0,66,0.00,,,0.00,WUHU216HW,2013-12-23 05:43:00,
2013-12-22 23:48:00,40.7,30.2,29.75,North,0,0.0,0.0,66,0.00,,,0.00,WUHU216HW,2013-12-23 05:48:00,
2013-12-22 23:53:00,40.3,30.2,29.76,North,0,0.0,0.0,67,0.00,,,0.00,WUHU216HW,2013-12-23 05:53:00,
2013-12-22 23:58:00,40.1,30.0,29.76,North,0,0.0,0.0,67,0.00,,,0.00,WUHU216HW,2013-12-23 05:58:00,